Location: Eppenbrunn
(49.1158°N, 7.5601°E)
Time: 06:57:37
(UTC+00:00)

Cosmos 1943 - Pass Details

Date: 09 April 2020
Orbit: 832 x 851 km, 71.0° (Epoch: 02 June)

Event Time Altitude Azimuth Distance (km) Brightness Sun altitude
Rises 19:08:44 0° 221° (SW) 3,386 6.6 -9.4°
Reaches altitude 10° 19:11:13 10° 226° (SW) 2,458 5.9 -9.7°
Maximum altitude 19:16:45 55° 304° (NW) 1,012 4.1 -10.6°
Drops below altitude 10° 19:22:21 10° 22° (NNE) 2,484 5.7 -11.4°
Sets 19:24:53 0° 27° (NNE) 3,426 6.4 -11.8°
